When you browse on this site, cookies collect data to enhance your experience and personalize the content and advertising you see.
Visit our Privacy Policy to learn more. By continuing to use the site, you agree to this use of cookies and data.
  • In Latvia
  • List of Countries
  • For 7 days
  • Water Temperature
  • Satellite Maps
  • Weather Map
  • Weather Widgets
  • user-avatar
    Login

    Hourly Weather Kingston

    Today, 21 July, Sunday

    Time Temperature Precipitation Wind Pressure Humidity
    00:00 +23°C° 0 mm 2 mps 706 mmHg 85%
    01:00 +23°C° 0 mm 2 mps 706 mmHg 86%
    02:00 +23°C° 0 mm 2 mps 705 mmHg 87%
    03:00 +23°C° 0 mm 2 mps 705 mmHg 87%
    04:00 +23°C° 0 mm 2 mps 705 mmHg 88%
    05:00 +23°C° 0 mm 2 mps 705 mmHg 86%
    06:00 +24°C° 0 mm 2 mps 706 mmHg 85%
    07:00 +25°C° 0 mm 2 mps 706 mmHg 83%
    08:00 +27°C° 0 mm 2 mps 706 mmHg 73%
    09:00 +29°C° 0 mm 2 mps 707 mmHg 63%
    10:00 +31°C° 0 mm 2 mps 707 mmHg 54%
    11:00 +31°C° 0.2 mm 3 mps 707 mmHg 53%
    12:00 +31°C° 0.2 mm 3 mps 707 mmHg 53%
    13:00 +33°C° 0.2 mm 4 mps 707 mmHg 53%
    14:00 +32°C° 0.7 mm 4 mps 707 mmHg 55%
    15:00 +31°C° 0.7 mm 3 mps 706 mmHg 56%
    16:00 +30°C° 0.7 mm 3 mps 706 mmHg 58%
    17:00 +28°C° 0.1 mm 3 mps 705 mmHg 66%
    18:00 +27°C° 0.1 mm 2 mps 705 mmHg 73%
    19:00 +25°C° 0.1 mm 2 mps 705 mmHg 80%
    20:00 +24°C° 0 mm 2 mps 706 mmHg 82%
    21:00 +24°C° 0 mm 2 mps 706 mmHg 83%
    22:00 +23°C° 0 mm 2 mps 706 mmHg 84%
    23:00 +23°C° 0 mm 1 mps 706 mmHg 84%

    Tomorrow, 22 July, Monday

    Time Temperature Precipitation Wind Pressure Humidity
    00:00 +23°C° 0 mm 1 mps 706 mmHg 84%
    01:00 +22°C° 0 mm 1 mps 705 mmHg 84%
    02:00 +22°C° 0 mm 1 mps 705 mmHg 84%
    03:00 +22°C° 0 mm 1 mps 705 mmHg 83%
    04:00 +22°C° 0 mm 1 mps 705 mmHg 83%
    05:00 +23°C° 0 mm 1 mps 705 mmHg 81%
    06:00 +23°C° 0 mm 1 mps 706 mmHg 79%
    07:00 +24°C° 0 mm 1 mps 706 mmHg 77%
    08:00 +26°C° 0 mm 1 mps 706 mmHg 68%
    09:00 +28°C° 0 mm 2 mps 707 mmHg 60%
    10:00 +31°C° 0 mm 2 mps 708 mmHg 52%
    11:00 +31°C° 0.5 mm 2 mps 707 mmHg 52%
    12:00 +31°C° 0.5 mm 3 mps 707 mmHg 52%
    13:00 +31°C° 0.5 mm 3 mps 707 mmHg 52%
    14:00 +30°C° 1.3 mm 3 mps 707 mmHg 56%
    15:00 +29°C° 1.3 mm 3 mps 706 mmHg 61%
    16:00 +29°C° 1.3 mm 4 mps 706 mmHg 65%
    17:00 +27°C° 0.7 mm 3 mps 706 mmHg 70%
    18:00 +26°C° 0.7 mm 2 mps 706 mmHg 75%
    19:00 +25°C° 0.7 mm 2 mps 706 mmHg 80%
    20:00 +24°C° 0.1 mm 2 mps 706 mmHg 82%
    21:00 +24°C° 0.1 mm 2 mps 707 mmHg 85%
    22:00 +23°C° 0.1 mm 2 mps 707 mmHg 87%
    23:00 +23°C° 0.1 mm 2 mps 706 mmHg 87%

    Day after tomorrow, 23 July, Tuesday

    Time Temperature Precipitation Wind Pressure Humidity
    00:00 +23°C° 0.1 mm 2 mps 706 mmHg 88%
    01:00 +21°C° 0.1 mm 2 mps 706 mmHg 88%
    02:00 +22°C° 0 mm 1 mps 705 mmHg 88%
    03:00 +22°C° 0 mm 1 mps 705 mmHg 88%
    04:00 +22°C° 0 mm 1 mps 705 mmHg 88%
    05:00 +22°C° 0 mm 1 mps 705 mmHg 86%
    06:00 +23°C° 0 mm 1 mps 706 mmHg 84%
    07:00 +23°C° 0 mm 1 mps 706 mmHg 82%
    08:00 +25°C° 0 mm 2 mps 707 mmHg 73%
    09:00 +27°C° 0 mm 2 mps 708 mmHg 64%
    10:00 +29°C° 0 mm 3 mps 708 mmHg 54%
    11:00 +30°C° 0 mm 3 mps 708 mmHg 54%
    12:00 +30°C° 0 mm 4 mps 708 mmHg 54%
    13:00 +30°C° 0 mm 5 mps 708 mmHg 54%
    14:00 +30°C° 0.1 mm 4 mps 707 mmHg 55%
    15:00 +30°C° 0.1 mm 4 mps 707 mmHg 56%
    16:00 +30°C° 0.1 mm 3 mps 706 mmHg 58%
    17:00 +28°C° 0.2 mm 3 mps 706 mmHg 65%
    18:00 +27°C° 0.2 mm 3 mps 706 mmHg 72%
    19:00 +25°C° 0.2 mm 3 mps 706 mmHg 80%
    20:00 +25°C° 0.3 mm 2 mps 707 mmHg 81%
    21:00 +24°C° 0.3 mm 2 mps 707 mmHg 82%
    22:00 +24°C° 0.3 mm 2 mps 708 mmHg 83%
    23:00 +23°C° 0 mm 2 mps 707 mmHg 84%

    24 July, Wednesday

    Time Temperature Precipitation Wind Pressure Humidity
    00:00 +23°C° 0 mm 2 mps 707 mmHg 85%
    01:00 +23°C° 0 mm 2 mps 707 mmHg 85%
    02:00 +23°C° 0 mm 2 mps 706 mmHg 86%
    03:00 +21°C° 0 mm 2 mps 706 mmHg 86%
    04:00 +22°C° 0 mm 1 mps 706 mmHg 87%
    05:00 +23°C° 0 mm 2 mps 706 mmHg 85%
    06:00 +23°C° 0 mm 2 mps 707 mmHg 82%
    07:00 +24°C° 0 mm 2 mps 707 mmHg 80%
    08:00 +26°C° 0 mm 2 mps 707 mmHg 72%
    09:00 +28°C° 0 mm 3 mps 708 mmHg 63%
    10:00 +30°C° 0 mm 3 mps 709 mmHg 55%
    11:00 +32°C° 0 mm 4 mps 708 mmHg 54%
    12:00 +32°C° 0 mm 4 mps 708 mmHg 53%
    13:00 +32°C° 0 mm 5 mps 708 mmHg 52%
    14:00 +32°C° 0.3 mm 5 mps 707 mmHg 55%
    15:00 +30°C° 0.3 mm 4 mps 707 mmHg 59%
    16:00 +30°C° 0.3 mm 4 mps 707 mmHg 62%
    17:00 +28°C° 0 mm 4 mps 706 mmHg 67%
    18:00 +27°C° 0 mm 3 mps 706 mmHg 72%
    19:00 +25°C° 0 mm 3 mps 706 mmHg 77%
    20:00 +25°C° 0 mm 2 mps 707 mmHg 80%
    21:00 +24°C° 0 mm 2 mps 707 mmHg 82%
    22:00 +23°C° 0 mm 2 mps 707 mmHg 84%
    23:00 +23°C° 0 mm 2 mps 707 mmHg 85%

    25 July, Thursday

    Time Temperature Precipitation Wind Pressure Humidity
    00:00 +23°C° 0 mm 2 mps 706 mmHg 86%
    01:00 +21°C° 0 mm 2 mps 706 mmHg 88%
    02:00 +22°C° 0 mm 1 mps 706 mmHg 88%
    03:00 +22°C° 0 mm 1 mps 706 mmHg 88%
    04:00 +22°C° 0 mm 1 mps 706 mmHg 88%
    05:00 +23°C° 0 mm 1 mps 706 mmHg 86%
    06:00 +23°C° 0 mm 1 mps 707 mmHg 83%
    07:00 +24°C° 0 mm 1 mps 707 mmHg 80%
    08:00 +26°C° 0 mm 2 mps 707 mmHg 71%
    09:00 +28°C° 0 mm 2 mps 708 mmHg 63%
    10:00 +31°C° 0 mm 2 mps 708 mmHg 54%
    11:00 +31°C° 0.3 mm 3 mps 708 mmHg 54%
    12:00 +31°C° 0.3 mm 3 mps 708 mmHg 53%
    13:00 +31°C° 0.3 mm 3 mps 708 mmHg 53%
    14:00 +31°C° 0.4 mm 3 mps 707 mmHg 55%
    15:00 +30°C° 0.4 mm 3 mps 707 mmHg 56%
    16:00 +30°C° 0.4 mm 2 mps 706 mmHg 58%
    17:00 +28°C° 0.1 mm 2 mps 706 mmHg 67%
    18:00 +27°C° 0.1 mm 2 mps 706 mmHg 75%
    19:00 +25°C° 0.1 mm 1 mps 706 mmHg 84%
    20:00 +24°C° 0 mm 1 mps 706 mmHg 86%
    21:00 +24°C° 0 mm 1 mps 707 mmHg 89%
    22:00 +23°C° 0 mm 1 mps 707 mmHg 91%
    23:00 +23°C° 0.1 mm 1 mps 707 mmHg 91%

    26 July, Friday

    Time Temperature Precipitation Wind Pressure Humidity
    00:00 +23°C° 0.1 mm 1 mps 707 mmHg 92%
    01:00 +23°C° 0.1 mm 1 mps 706 mmHg 93%
    02:00 +23°C° 0.1 mm 1 mps 706 mmHg 92%
    03:00 +23°C° 0.1 mm 1 mps 706 mmHg 92%
    04:00 +22°C° 0.1 mm 1 mps 706 mmHg 92%
    05:00 +23°C° 0 mm 1 mps 706 mmHg 89%
    06:00 +23°C° 0 mm 1 mps 706 mmHg 86%
    07:00 +24°C° 0 mm 2 mps 707 mmHg 83%
    08:00 +26°C° 0 mm 2 mps 707 mmHg 73%
    09:00 +28°C° 0 mm 3 mps 708 mmHg 64%
    10:00 +30°C° 0 mm 3 mps 708 mmHg 54%
    11:00 +30°C° 0.2 mm 4 mps 708 mmHg 54%
    12:00 +30°C° 0.2 mm 4 mps 708 mmHg 55%
    13:00 +30°C° 0.2 mm 5 mps 708 mmHg 55%
    14:00 +30°C° 0.1 mm 5 mps 707 mmHg 56%
    15:00 +29°C° 0.1 mm 4 mps 707 mmHg 58%
    16:00 +29°C° 0.1 mm 4 mps 707 mmHg 60%
    17:00 +28°C° 0 mm 4 mps 707 mmHg 65%
    18:00 +26°C° 0 mm 3 mps 707 mmHg 69%
    19:00 +25°C° 0 mm 3 mps 707 mmHg 74%
    20:00 +25°C° 0 mm 3 mps 707 mmHg 77%
    21:00 +24°C° 0 mm 2 mps 708 mmHg 80%
    22:00 +23°C° 0 mm 2 mps 708 mmHg 83%
    23:00 +23°C° 0 mm 2 mps 708 mmHg 85%
    Show more